Weather History for Garden City, KS

Change the Weather History Date:

Monday, March 11, 2013

  Actual Average Record
Temperature  
Mean Temperature 39 °F 42 °F  
Max Temperature 60 °F 56 °F 90 °F (1972)
Min Temperature 17 °F 28 °F -4 °F (1969)
Degree Days  
Heating Degree Days 26 23  
Month to date heating degree days 208 268  
Since 1 July heating degree days 4109 4292  
Cooling Degree Days 0 0  
Month to date cooling degree days 0 0  
Year to date cooling degree days 0 0  
Moisture  
Dew Point 20 °F    
Average Humidity 54    
Maximum Humidity 84    
Minimum Humidity 23    
Precipitation  
Precipitation 0.00 in 0.04 in 0.24 in (1990)
Month to date precipitation 0.03 0.39  
Year to date precipitation 0.37 1.27  
Sea Level Pressure  
Sea Level Pressure 30.02 in    
Wind  
Wind Speed 9 mph (NNW)    
Max Wind Speed 17 mph    
Max Gust Speed 22 mph    
Visibility 10 miles    
Events      
T = Trace of Precipitation, MM = Missing Value Source: NWS Daily Summary

Daily Weather History Graph

Daily Weather History Graph

Search for Another Location

Airport:

Trip Planner

Search our weather history database for the weather conditions in past years. The results will help you decide how hot, cold, wet, or windy it might be!

Date:

Astronomy

Mar. 11, 2013 Rise Set
Actual Time 7:59 AM CDT 7:46 PM CDT
Civil Twilight 7:33 AM CDT 8:12 PM CDT
Nautical Twilight 7:02 AM CDT 8:43 PM CDT
Astronomical Twilight 6:32 AM CDT 9:14 PM CDT
Moon 7:34 AM CDT (3/11) 7:59 PM CDT (3/11)
Length of Visible Light 12h 39m
Length of Day
11h 46m
Waning Crescent, 0% of the Moon is Illuminated
Mar 11
Waning Crescent
Mar 11
New
Mar 19
First Quarter
Mar 27
Full
Apr 2
Last Quarter

Hourly Weather History & Observations

Time (CDT) Temp. Windchill Dew Point Humidity Pressure Visibility Wind Dir Wind Speed Gust Speed Precip Events Conditions
12:54 AM 19.0 °F 8.2 °F 12.0 °F 74% 30.13 in 10.0 mi WNW 9.2 mph - N/A   Clear
1:54 AM 19.0 °F 8.2 °F 12.9 °F 77% 30.14 in 10.0 mi WNW 9.2 mph - N/A   Clear
2:54 AM 19.0 °F 10.0 °F 12.0 °F 74% 30.12 in 10.0 mi NW 6.9 mph - N/A   Clear
3:54 AM 19.0 °F 10.0 °F 12.0 °F 74% 30.08 in 10.0 mi WNW 6.9 mph - N/A   Clear
4:54 AM 17.1 °F 11.7 °F 12.0 °F 81% 30.06 in 10.0 mi WNW 3.5 mph - N/A   Clear
5:54 AM 18.0 °F 6.9 °F 14.0 °F 84% 30.05 in 10.0 mi West 9.2 mph - N/A   Clear
6:54 AM 19.0 °F 11.1 °F 15.1 °F 85% 30.04 in 10.0 mi WNW 5.8 mph - N/A   Clear
7:54 AM 19.0 °F 10.0 °F 15.1 °F 85% 30.05 in 10.0 mi West 6.9 mph - N/A   Clear
8:54 AM 23.0 °F 15.8 °F 18.0 °F 81% 30.06 in 10.0 mi West 5.8 mph - N/A   Clear
9:54 AM 30.9 °F 22.8 °F 21.0 °F 67% 30.05 in 10.0 mi West 9.2 mph - N/A   Clear
10:54 AM 36.0 °F 30.3 °F 21.0 °F 55% 30.04 in 10.0 mi West 6.9 mph - N/A   Clear
11:54 AM 44.1 °F 40.1 °F 21.9 °F 42% 30.02 in 10.0 mi WNW 6.9 mph - N/A   Clear
12:54 PM 51.1 °F - 24.1 °F 35% 30.01 in 10.0 mi NW 12.7 mph 18.4 mph N/A   Clear
1:54 PM 55.9 °F - 23.0 °F 28% 29.96 in 10.0 mi NNW 9.2 mph - N/A   Clear
2:54 PM 57.0 °F - 21.9 °F 26% 29.95 in 10.0 mi NNW 8.1 mph 21.9 mph N/A   Clear
3:54 PM 59.0 °F - 23.0 °F 25% 29.93 in 10.0 mi North 9.2 mph - N/A   Clear
4:54 PM 60.1 °F - 23.0 °F 24% 29.92 in 10.0 mi NNE 11.5 mph - N/A   Mostly Cloudy
5:54 PM 59.0 °F - 23.0 °F 25% 29.92 in 10.0 mi NE 9.2 mph - N/A   Clear
6:54 PM 57.0 °F - 24.1 °F 28% 29.94 in 10.0 mi ENE 8.1 mph - N/A   Mostly Cloudy
7:54 PM 51.1 °F - 25.0 °F 36% 29.96 in 10.0 mi ENE 6.9 mph - N/A   Overcast
8:54 PM 48.0 °F - 27.0 °F 44% 29.98 in 10.0 mi NE 9.2 mph - N/A   Overcast
9:54 PM 46.9 °F - 28.9 °F 50% 30.02 in 10.0 mi NNE 12.7 mph - N/A   Overcast
10:54 PM 45.0 °F 38.9 °F 28.9 °F 53% 30.03 in 10.0 mi NNE 12.7 mph - N/A   Mostly Cloudy
11:54 PM 43.0 °F 35.4 °F 28.0 °F 56% 30.06 in 10.0 mi North 16.1 mph - N/A   Overcast